,,Stat1,,Stat2,,Stat3,,Stat4,,Wind1,,Wind1,
time,status,PR1M_SUM,status,RH1M_AVG,status,SR1M_AVG,status,TA1M_AVG,status,W1dAve1m,status,W1sAve1m,
1999-12-07, 00:01:01,VALID,0,VALID,99.8324,VALID,-0.0679233,VALID,18.8524,VALID,97,VALID,1.17722,
1999-12-07, 00:02:00,VALID,0,VALID,99.8375,VALID,-0.0509425,VALID,18.8551,VALID,95,VALID,1.16426,
1999-12-07, 00:03:01,VALID,0,VALID,99.8438,VALID,-0.0169808,VALID,18.8554,VALID,102,VALID,1.36003,
1999-12-07, 00:04:00,VALID,0,VALID,99.8515,VALID,-0.0339617,VALID,18.8487,VALID,95,VALID,1.24795,
1999-12-07, 00:05:00,VALID,0,VALID,99.8616,VALID,-0.0679233,VALID,18.8584,VALID,99,VALID,1.52956,
1999-12-07, 00:06:00,VALID,0,VALID,99.882,VALID,-0.0509425,VALID,18.8648,VALID,100,VALID,1.09622,
1999-12-07, 00:07:00,VALID,0,VALID,99.8985,VALID,-0.0339617,VALID,18.875,VALID,107,VALID,1.14802,
1999-12-07, 00:08:00,VALID,0,VALID,99.8896,VALID,-0.0169808,VALID,18.8715,VALID,113,VALID,1.20373,
1999-12-07, 00:09:00,VALID,0,VALID,99.9087,VALID,0,VALID,18.8646,VALID,102,VALID,1.07676,
1999-12-07, 00:10:00,VALID,0,VALID,99.9316,VALID,-0.0509425,VALID,18.8748,VALID,94,VALID,0.330804,
1999-12-07, 00:11:00,VALID,0,VALID,99.9303,VALID,-0.0339617,VALID,18.8745,VALID,89,VALID,0.0339844,
1999-12-07, 00:12:00,VALID,0,VALID,99.9392,VALID,-0.0169808,VALID,18.8743,VALID,89,VALID,0.16838,
1999-12-07, 00:13:00,VALID,0,VALID,99.957,VALID,-0.0339617,VALID,18.8812,VALID,102,VALID,0.531672,
1999-12-07, 00:14:01,VALID,0,VALID,99.9621,VALID,-0.0339617,VALID,18.8711,VALID,53,VALID,0.649239,
1999-12-07, 00:15:00,VALID,0,VALID,99.9532,VALID,0,VALID,18.8681,VALID,50,VALID,0.512767,
1999-12-07, 00:16:00,VALID,0,VALID,99.9723,VALID,0,VALID,18.8743,VALID,87,VALID,1.27676,
1999-12-07, 00:17:00,VALID,0,VALID,99.9761,VALID,0,VALID,18.881,VALID,74,VALID,0.606702,
1999-12-07, 00:18:00,VALID,0,VALID,99.9954,VALID,-0.0169808,VALID,18.8812,VALID,354,VALID,0.519626,
1999-12-07, 00:19:00,VALID,0,VALID,99.9868,VALID,-0.0339617,VALID,18.8618,VALID,57,VALID,0.889992,
1999-12-07, 00:20:00,VALID,0,VALID,100,VALID,-0.0169808,VALID,18.875,VALID,98,VALID,1.35705,
1999-12-07, 00:21:00,VALID,0,VALID,100,VALID,-0.0509425,VALID,18.8715,VALID,94,VALID,1.03766,
1999-12-07, 00:22:00,VALID,0,VALID,100,VALID,-0.101885,VALID,18.8745,VALID,85,VALID,0.988176,
1999-12-07, 00:23:00,VALID,0,VALID,99.999,VALID,-0.0509425,VALID,18.8517,VALID,97,VALID,1.1398,
1999-12-07, 00:24:00,VALID,0,VALID,100,VALID,-0.0169808,VALID,18.8517,VALID,93,VALID,0.945313,
1999-12-07, 00:25:01,VALID,0,VALID,100,VALID,-0.0339617,VALID,18.878,VALID,94,VALID,0.610377,
1999-12-07, 00:26:00,VALID,0,VALID,100,VALID,-0.0339617,VALID,18.8487,VALID,59,VALID,0.734375,
1999-12-07, 00:27:00,VALID,0,VALID,100,VALID,-0.0509425,VALID,18.8462,VALID,72,VALID,0.442969,
1999-12-07, 00:28:00,VALID,0.2,VALID,100,VALID,-0.0339617,VALID,18.8392,VALID,92,VALID,0.550481,
1999-12-07, 00:29:00,VALID,0,VALID,100,VALID,-0.0849042,VALID,18.8489,VALID,89,VALID,0.662891,
1999-12-07, 00:30:00,VALID,0,VALID,100,VALID,-0.0509425,VALID,18.8586,VALID,106,VALID,0.733141,
1999-12-07, 00:31:00,VALID,0.2,VALID,100,VALID,-0.0679233,VALID,18.8688,VALID,96,VALID,0.963672,
1999-12-07, 00:32:00,VALID,0,VALID,100,VALID,-0.101885,VALID,18.8715,VALID,96,VALID,1.03674,
1999-12-07, 00:33:00,VALID,0.2,VALID,100,VALID,-0.0169808,VALID,18.8907,VALID,92,VALID,1.50359,
1999-12-07, 00:34:01,VALID,0,VALID,100,VALID,-0.0169808,VALID,18.8845,VALID,105,VALID,1.20192,
1999-12-07, 00:35:00,VALID,0,VALID,100,VALID,-0.0679233,VALID,18.8812,VALID,112,VALID,0.603413,
1999-12-07, 00:36:00,VALID,0,VALID,100,VALID,-0.0509425,VALID,18.8842,VALID,173,VALID,0.231841,
1999-12-07, 00:37:00,VALID,0,VALID,100,VALID,-0.0509425,VALID,18.8778,VALID,113,VALID,0.301398,
1999-12-07, 00:38:00,VALID,0,VALID,100,VALID,-0.0339617,VALID,18.8875,VALID,47,VALID,0.140008,
1999-12-07, 00:39:00,VALID,0,VALID,100,VALID,-0.0169808,VALID,18.8808,VALID,75,VALID,0.101563,
1999-12-07, 00:40:00,VALID,0,VALID,100,VALID,-0.0339617,VALID,18.8778,VALID,74,VALID,0.330729,
1999-12-07, 00:41:00,VALID,0,VALID,100,VALID,-0.0509425,VALID,18.8847,VALID,46,VALID,0.0460938,
1999-12-07, 00:42:00,VALID,0,VALID,100,VALID,-0.0339617,VALID,18.8845,VALID,52,VALID,0,
1999-12-07, 00:43:00,VALID,0,VALID,100,VALID,-0.0169808,VALID,18.8974,VALID,91,VALID,0.480273,
1999-12-07, 00:44:00,VALID,0.2,VALID,100,VALID,-0.0509425,VALID,18.9101,VALID,100,VALID,0.807566,
1999-12-07, 00:45:00,VALID,0,VALID,100,VALID,-0.0339617,VALID,18.9136,VALID,95,VALID,0.754645,
1999-12-07, 00:46:00,VALID,0,VALID,100,VALID,-0.0169808,VALID,18.9039,VALID,96,VALID,1.42808,
1999-12-07, 00:47:00,VALID,0,VALID,100,VALID,-0.0169808,VALID,18.9133,VALID,102,VALID,0.741806,
1999-12-07, 00:48:00,VALID,0,VALID,100,VALID,0,VALID,18.9233,VALID,125,VALID,0.389648,
1999-12-07, 00:49:00,VALID,0,VALID,100,VALID,0,VALID,18.9032,VALID,91,VALID,0.731908,
1999-12-07, 00:50:00,VALID,0,VALID,100,VALID,0,VALID,18.8969,VALID,109,VALID,0.645579,
1999-12-07, 00:51:00,VALID,0,VALID,100,VALID,-0.0679233,VALID,18.9004,VALID,123,VALID,0.366765,
1999-12-07, 00:52:00,VALID,0,VALID,100,VALID,-0.0509425,VALID,18.8969,VALID,85,VALID,0.278716,
1999-12-07, 00:53:00,VALID,0,VALID,100,VALID,-0.0679233,VALID,18.9103,VALID,82,VALID,0.561298,
1999-12-07, 00:54:00,VALID,0,VALID,100,VALID,-0.0509425,VALID,18.8979,VALID,72,VALID,0.361486,
1999-12-07, 00:55:00,VALID,0,VALID,100,VALID,-0.0509425,VALID,18.8912,VALID,120,VALID,0.0386513,
1999-12-07, 00:56:00,VALID,0,VALID,100,VALID,-0.0169808,VALID,18.8808,VALID,189,VALID,0,
1999-12-07, 00:57:00,VALID,0,VALID,100,VALID,-0.0169808,VALID,18.8847,VALID,156,VALID,0.32492,
1999-12-07, 00:58:00,VALID,0,VALID,100,VALID,-0.0169808,VALID,18.8849,VALID,77,VALID,0,
1999-12-07, 00:59:00,VALID,0,VALID,100,VALID,-0.0339617,VALID,18.8916,VALID,44,VALID,0,
1999-12-07, 01:00:00,VALID,0,VALID,100,VALID,-0.0169808,VALID,18.8879,VALID,102,VALID,0,
1999-12-07, 01:01:00,VALID,0,VALID,100,VALID,-0.0509425,VALID,18.8909,VALID,103,VALID,0,
1999-12-07, 01:02:00,VALID,0,VALID,100,VALID,-0.0509425,VALID,18.9108,VALID,124,VALID,0,
1999-12-07, 01:03:00,VALID,0,VALID,100,VALID,-0.0849042,VALID,18.9138,VALID,120,VALID,0,
1999-12-07, 01:04:00,VALID,0,VALID,100,VALID,-0.0339617,VALID,18.9138,VALID,101,VALID,0,
1999-12-07, 01:05:00,VALID,0,VALID,100,VALID,-0.0679233,VALID,18.9173,VALID,97,VALID,0,
1999-12-07, 01:06:00,VALID,0,VALID,100,VALID,-0.0339617,VALID,18.9073,VALID,98,VALID,0,
1999-12-07, 01:07:00,VALID,0,VALID,100,VALID,-0.0679233,VALID,18.9108,VALID,99,VALID,0.535979,
1999-12-07, 01:08:01,VALID,0,VALID,100,VALID,-0.0679233,VALID,18.8847,VALID,88,VALID,1.41786,
1999-12-07, 01:09:00,VALID,0,VALID,100,VALID,-0.0679233,VALID,18.8752,VALID,78,VALID,0.215745,
1999-12-07, 01:10:00,VALID,0,VALID,100,VALID,-0.0169808,VALID,18.8815,VALID,20,VALID,0.0639391,
1999-12-07, 01:11:00,VALID,0,VALID,100,VALID,-0.0679233,VALID,18.872,VALID,303,VALID,0.354367,
1999-12-07, 01:12:00,VALID,0,VALID,100,VALID,-0.101885,VALID,18.875,VALID,179,VALID,0.266226,
1999-12-07, 01:13:00,VALID,0,VALID,100,VALID,-0.0339617,VALID,18.8815,VALID,64,VALID,0.3375,
1999-12-07, 01:14:00,VALID,0,VALID,100,VALID,-0.0509425,VALID,18.8685,VALID,63,VALID,0.523438,
1999-12-07, 01:15:00,VALID,0,VALID,100,VALID,-0.0509425,VALID,18.8591,VALID,85,VALID,0.888086,
1999-12-07, 01:16:00,VALID,0,VALID,100,VALID,-0.0849042,VALID,18.8623,VALID,87,VALID,1.45703,
1999-12-07, 01:17:00,VALID,0,VALID,100,VALID,-0.0849042,VALID,18.8524,VALID,89,VALID,1.33045,
1999-12-07, 01:18:00,VALID,0,VALID,100,VALID,-0.0509425,VALID,18.8621,VALID,82,VALID,1.28205,
1999-12-07, 01:19:00,VALID,0,VALID,100,VALID,0.0339617,VALID,18.8413,VALID,85,VALID,1.52515,
1999-12-07, 01:20:00,VALID,0,VALID,100,VALID,0.0339617,VALID,18.8445,VALID,109,VALID,0.723047,
1999-12-07, 01:21:00,VALID,0,VALID,100,VALID,0,VALID,18.8674,VALID,100,VALID,0.874178,
1999-12-07, 01:22:00,VALID,0,VALID,100,VALID,0.0169808,VALID,18.8736,VALID,99,VALID,0.817835,
1999-12-07, 01:23:00,VALID,0,VALID,100,VALID,0.0169808,VALID,18.8994,VALID,98,VALID,0.477407,
1999-12-07, 01:24:00,VALID,0,VALID,100,VALID,0.0339617,VALID,18.9022,VALID,90,VALID,0.567356,
1999-12-07, 01:25:00,VALID,0,VALID,100,VALID,0.0169808,VALID,18.8957,VALID,94,VALID,0.76262,
1999-12-07, 01:26:00,VALID,0,VALID,100,VALID,0,VALID,18.9158,VALID,94,VALID,1.33446,
1999-12-07, 01:27:00,VALID,0,VALID,100,VALID,0,VALID,18.9091,VALID,93,VALID,1.17229,
1999-12-07, 01:28:00,VALID,0,VALID,100,VALID,0,VALID,18.8895,VALID,57,VALID,0.645559,
1999-12-07, 01:29:00,VALID,0,VALID,100,VALID,0.0509425,VALID,18.8639,VALID,102,VALID,0.255609,
1999-12-07, 01:30:00,VALID,0,VALID,100,VALID,0.0169808,VALID,18.8766,VALID,98,VALID,0.984164,
1999-12-07, 01:31:00,VALID,0,VALID,100,VALID,0.0509425,VALID,18.8965,VALID,98,VALID,1.49355,
1999-12-07, 01:32:00,VALID,0,VALID,100,VALID,0.0509425,VALID,18.8865,VALID,91,VALID,1.20092,
1999-12-07, 01:33:00,VALID,0,VALID,100,VALID,0.0509425,VALID,18.8674,VALID,87,VALID,1.54531,
1999-12-07, 01:34:00,VALID,0,VALID,100,VALID,0,VALID,18.8602,VALID,98,VALID,1.72471,
1999-12-07, 01:35:00,VALID,0,VALID,100,VALID,0.0169808,VALID,18.8741,VALID,101,VALID,1.57559,
1999-12-07, 01:36:00,VALID,0,VALID,100,VALID,0.0509425,VALID,18.8833,VALID,97,VALID,1.4734,
1999-12-07, 01:37:00,VALID,0,VALID,100,VALID,0,VALID,18.8833,VALID,96,VALID,1.50591,
1999-12-07, 01:38:00,VALID,0,VALID,100,VALID,0.0509425,VALID,18.8962,VALID,95,VALID,1.53145,
1999-12-07, 01:39:00,VALID,0,VALID,100,VALID,0,VALID,18.886,VALID,98,VALID,1.2868,
1999-12-07, 01:40:00,VALID,0,VALID,100,VALID,0.0509425,VALID,18.8932,VALID,92,VALID,0.819257,
1999-12-07, 01:41:01,VALID,0,VALID,100,VALID,0.0169808,VALID,18.8897,VALID,93,VALID,0.804276,
1999-12-07, 01:42:00,VALID,0,VALID,100,VALID,0,VALID,18.8833,VALID,85,VALID,1.41612,
1999-12-07, 01:43:00,VALID,0,VALID,100,VALID,0.0169808,VALID,18.838,VALID,94,VALID,1.15304,
1999-12-07, 01:44:00,VALID,0,VALID,100,VALID,-0.0169808,VALID,18.8447,VALID,91,VALID,0.969752,
1999-12-07, 01:45:00,VALID,0,VALID,100,VALID,0,VALID,18.8387,VALID,81,VALID,1.45,
1999-12-07, 01:46:00,VALID,0,VALID,100,VALID,0.0169808,VALID,18.8353,VALID,89,VALID,1.25714,
1999-12-07, 01:47:00,VALID,0,VALID,100,VALID,0.0169808,VALID,18.8385,VALID,94,VALID,1.02012,
1999-12-07, 01:48:00,VALID,0,VALID,100,VALID,0,VALID,18.8547,VALID,104,VALID,1.11698,
1999-12-07, 01:49:00,VALID,0,VALID,100,VALID,0.0169808,VALID,18.8484,VALID,106,VALID,0.670819,
1999-12-07, 01:50:00,VALID,0,VALID,100,VALID,0,VALID,18.8551,VALID,93,VALID,0.660457,
1999-12-07, 01:51:00,VALID,0,VALID,100,VALID,0,VALID,18.842,VALID,101,VALID,0.0472561,
1999-12-07, 01:52:01,VALID,0,VALID,100,VALID,0,VALID,18.842,VALID,94,VALID,0,
1999-12-07, 01:53:00,VALID,0,VALID,100,VALID,0.0169808,VALID,18.8544,VALID,97,VALID,0.215666,
1999-12-07, 01:54:00,VALID,0,VALID,100,VALID,0.0339617,VALID,18.8544,VALID,87,VALID,1.2237,
1999-12-07, 01:55:00,VALID,0,VALID,100,VALID,0,VALID,18.8611,VALID,97,VALID,1.1951,
1999-12-07, 01:56:00,VALID,0,VALID,100,VALID,0.0169808,VALID,18.8445,VALID,98,VALID,0.829603,
1999-12-07, 01:57:00,VALID,0,VALID,100,VALID,0.0169808,VALID,18.8507,VALID,100,VALID,1.04447,
1999-12-07, 01:58:00,VALID,0,VALID,100,VALID,0,VALID,18.8413,VALID,86,VALID,0.817145,
1999-12-07, 01:59:00,VALID,0,VALID,100,VALID,0.0509425,VALID,18.8445,VALID,111,VALID,0.805715,
1999-12-07, 02:00:00,VALID,0,VALID,100,VALID,0,VALID,18.8443,VALID,120,VALID,0.502878,
1999-12-07, 02:01:00,VALID,0,VALID,100,VALID,0.0169808,VALID,18.8641,VALID,85,VALID,0.807091,
1999-12-07, 02:02:00,VALID,0,VALID,100,VALID,0.0169808,VALID,18.8706,VALID,88,VALID,1.41047,
1999-12-07, 02:03:01,VALID,0,VALID,100,VALID,0,VALID,18.8708,VALID,92,VALID,1.3209,
1999-12-07, 02:04:00,VALID,0,VALID,100,VALID,0.0169808,VALID,18.8775,VALID,91,VALID,1.22656,
1999-12-07, 02:05:00,VALID,0,VALID,100,VALID,0.0169808,VALID,18.8736,VALID,70,VALID,0.598633,
1999-12-07, 02:06:00,VALID,0.2,VALID,100,VALID,0.0169808,VALID,18.8413,VALID,63,VALID,1.14515,
1999-12-07, 02:07:00,VALID,0,VALID,100,VALID,0.0169808,VALID,18.8286,VALID,125,VALID,0.908984,
1999-12-07, 02:08:00,VALID,0,VALID,100,VALID,0.0169808,VALID,18.8029,VALID,86,VALID,0.924831,
1999-12-07, 02:09:00,VALID,0,VALID,100,VALID,0,VALID,18.8126,VALID,97,VALID,1.11381,
1999-12-07, 02:10:00,VALID,0,VALID,100,VALID,0,VALID,18.8348,VALID,103,VALID,1.17989,
1999-12-07, 02:11:00,VALID,0,VALID,100,VALID,0,VALID,18.8618,VALID,93,VALID,1.25391,
1999-12-07, 02:12:00,VALID,0,VALID,100,VALID,0,VALID,18.8676,VALID,91,VALID,1,
1999-12-07, 02:13:00,VALID,0,VALID,100,VALID,0,VALID,18.8639,VALID,100,VALID,1.12418,
1999-12-07, 02:14:01,VALID,0,VALID,100,VALID,0.0169808,VALID,18.8676,VALID,96,VALID,1.09457,
1999-12-07, 02:15:00,VALID,0,VALID,100,VALID,0,VALID,18.8768,VALID,112,VALID,0.616386,
1999-12-07, 02:16:00,VALID,0,VALID,100,VALID,0,VALID,18.8773,VALID,89,VALID,1.01903,
1999-12-07, 02:17:00,VALID,0,VALID,100,VALID,0.0169808,VALID,18.8711,VALID,101,VALID,0.648047,
1999-12-07, 02:18:00,VALID,0,VALID,100,VALID,0,VALID,18.8669,VALID,107,VALID,0.420759,
1999-12-07, 02:19:00,VALID,0,VALID,100,VALID,0,VALID,18.8748,VALID,85,VALID,0.553906,
1999-12-07, 02:20:00,VALID,0,VALID,100,VALID,0,VALID,18.8745,VALID,106,VALID,0.691201,
1999-12-07, 02:21:00,VALID,0,VALID,100,VALID,-0.0339617,VALID,18.8653,VALID,81,VALID,0.777238,
1999-12-07, 02:22:00,VALID,0,VALID,100,VALID,0,VALID,18.8586,VALID,108,VALID,0.60597,
1999-12-07, 02:23:00,VALID,0,VALID,100,VALID,-0.0169808,VALID,18.8584,VALID,91,VALID,0.414634,
1999-12-07, 02:24:00,VALID,0,VALID,100,VALID,-0.0169808,VALID,18.836,VALID,118,VALID,0.83457,
1999-12-07, 02:25:01,VALID,0,VALID,100,VALID,0,VALID,18.8298,VALID,245,VALID,0.246505,
1999-12-07, 02:26:00,VALID,0,VALID,100,VALID,-0.0339617,VALID,18.8427,VALID,111,VALID,0.669588,
1999-12-07, 02:27:00,VALID,0,VALID,100,VALID,0,VALID,18.8427,VALID,92,VALID,0.645059,
1999-12-07, 02:28:00,VALID,0,VALID,100,VALID,-0.0169808,VALID,18.8228,VALID,116,VALID,0.546242,
1999-12-07, 02:29:00,VALID,0,VALID,100,VALID,0,VALID,18.836,VALID,86,VALID,0.130809,
1999-12-07, 02:30:00,VALID,0,VALID,100,VALID,-0.0339617,VALID,18.8323,VALID,32,VALID,0.156883,
1999-12-07, 02:31:00,VALID,0,VALID,100,VALID,-0.0169808,VALID,18.839,VALID,108,VALID,0.296053,
1999-12-07, 02:32:00,VALID,0,VALID,100,VALID,-0.0169808,VALID,18.8489,VALID,110,VALID,0.00863487,
1999-12-07, 02:33:00,VALID,0,VALID,100,VALID,0,VALID,18.8653,VALID,103,VALID,0.439103,
1999-12-07, 02:34:00,VALID,0,VALID,100,VALID,0,VALID,18.8683,VALID,105,VALID,0.860008,
1999-12-07, 02:35:01,VALID,0,VALID,100,VALID,-0.0339617,VALID,18.8648,VALID,89,VALID,1.09941,
1999-12-07, 02:36:01,VALID,0,VALID,100,VALID,0,VALID,18.8648,VALID,93,VALID,1.13041,
1999-12-07, 02:37:00,VALID,0,VALID,100,VALID,0,VALID,18.8653,VALID,322,VALID,0.639844,
1999-12-07, 02:38:00,VALID,0,VALID,100,VALID,0,VALID,18.8588,VALID,103,VALID,0.959293,
1999-12-07, 02:39:00,VALID,0,VALID,100,VALID,-0.0339617,VALID,18.8711,VALID,100,VALID,1.11563,
1999-12-07, 02:40:00,VALID,0,VALID,100,VALID,-0.0169808,VALID,18.8616,VALID,90,VALID,1.17166,
1999-12-07, 02:41:00,VALID,0,VALID,100,VALID,0,VALID,18.8646,VALID,83,VALID,0.880068,
1999-12-07, 02:42:00,VALID,0,VALID,100,VALID,0.0169808,VALID,18.8683,VALID,94,VALID,0.893229,
1999-12-07, 02:43:00,VALID,0,VALID,100,VALID,-0.0339617,VALID,18.878,VALID,108,VALID,1.32278,
1999-12-07, 02:44:00,VALID,0,VALID,100,VALID,0,VALID,18.8745,VALID,96,VALID,0.959037,
1999-12-07, 02:45:00,VALID,0,VALID,100,VALID,-0.0169808,VALID,18.8588,VALID,89,VALID,2.41447,
1999-12-07, 02:46:00,VALID,0,VALID,100,VALID,-0.0169808,VALID,18.8554,VALID,80,VALID,1.25432,
1999-12-07, 02:47:01,VALID,0,VALID,100,VALID,0,VALID,18.8521,VALID,93,VALID,1.45913,
1999-12-07, 02:48:00,VALID,0,VALID,100,VALID,-0.0339617,VALID,18.8586,VALID,97,VALID,1.82472,
1999-12-07, 02:49:00,VALID,0,VALID,100,VALID,-0.0339617,VALID,18.8491,VALID,92,VALID,1.86387,
1999-12-07, 02:50:00,VALID,0,VALID,100,VALID,-0.0339617,VALID,18.8529,VALID,88,VALID,1.93728,
1999-12-07, 02:51:00,VALID,0,VALID,100,VALID,0,VALID,18.8554,VALID,102,VALID,1.41816,
1999-12-07, 02:52:00,VALID,0,VALID,100,VALID,-0.0169808,VALID,18.8618,VALID,97,VALID,1.5736,
1999-12-07, 02:53:00,VALID,0,VALID,100,VALID,-0.0169808,VALID,18.8817,VALID,98,VALID,1.41174,
1999-12-07, 02:54:00,VALID,0,VALID,100,VALID,-0.0169808,VALID,18.8849,VALID,100,VALID,0.798277,
1999-12-07, 02:55:00,VALID,0,VALID,100,VALID,-0.0339617,VALID,18.8847,VALID,100,VALID,0.371761,
1999-12-07, 02:56:00,VALID,0.2,VALID,100,VALID,0,VALID,18.8847,VALID,103,VALID,0.572852,
1999-12-07, 02:57:01,VALID,0,VALID,100,VALID,-0.0339617,VALID,18.8845,VALID,82,VALID,1.86801,
1999-12-07, 02:58:01,VALID,0,VALID,100,VALID,-0.0169808,VALID,18.8494,VALID,95,VALID,1.05743,
1999-12-07, 02:59:00,VALID,0,VALID,100,VALID,0,VALID,18.8626,VALID,102,VALID,0.808699,
1999-12-07, 03:00:00,VALID,0,VALID,100,VALID,-0.0679233,VALID,18.8723,VALID,104,VALID,1.28336,
1999-12-07, 03:01:00,VALID,0,VALID,100,VALID,-0.0679233,VALID,18.8688,VALID,95,VALID,0.988782,
1999-12-07, 03:02:00,VALID,0,VALID,100,VALID,-0.0169808,VALID,18.8454,VALID,105,VALID,1.63429,
1999-12-07, 03:03:00,VALID,0,VALID,100,VALID,-0.0339617,VALID,18.8685,VALID,95,VALID,1.21402,
1999-12-07, 03:04:00,VALID,0,VALID,100,VALID,-0.0339617,VALID,18.8556,VALID,91,VALID,1.70127,
1999-12-07, 03:05:00,VALID,0,VALID,100,VALID,-0.0509425,VALID,18.8653,VALID,89,VALID,1.56571,
1999-12-07, 03:06:00,VALID,0,VALID,100,VALID,-0.0509425,VALID,18.8618,VALID,92,VALID,0.83087,
1999-12-07, 03:07:00,VALID,0,VALID,100,VALID,-0.0169808,VALID,18.8685,VALID,55,VALID,0.205664,
1999-12-07, 03:08:01,VALID,0,VALID,100,VALID,0,VALID,18.8494,VALID,59,VALID,1.38922,
1999-12-07, 03:09:01,VALID,0,VALID,100,VALID,-0.0169808,VALID,18.8457,VALID,99,VALID,1.80977,
1999-12-07, 03:10:00,VALID,0,VALID,100,VALID,-0.0169808,VALID,18.8524,VALID,105,VALID,0.981497,
1999-12-07, 03:11:00,VALID,0,VALID,100,VALID,-0.0509425,VALID,18.8658,VALID,90,VALID,0.744336,
1999-12-07, 03:12:00,VALID,0,VALID,100,VALID,-0.0339617,VALID,18.8653,VALID,99,VALID,1.17821,
1999-12-07, 03:13:00,VALID,0,VALID,100,VALID,-0.0509425,VALID,18.8521,VALID,100,VALID,0.967694,
1999-12-07, 03:14:00,VALID,0,VALID,100,VALID,0,VALID,18.8588,VALID,98,VALID,0.662861,
1999-12-07, 03:15:00,VALID,0,VALID,100,VALID,-0.0339617,VALID,18.8621,VALID,130,VALID,0.51028,
1999-12-07, 03:16:00,VALID,0,VALID,100,VALID,0,VALID,18.8685,VALID,139,VALID,0.347973,
1999-12-07, 03:17:00,VALID,0,VALID,100,VALID,-0.0169808,VALID,18.8581,VALID,84,VALID,0.683799,
1999-12-07, 03:18:00,VALID,0,VALID,100,VALID,0,VALID,18.8621,VALID,43,VALID,0.755551,
1999-12-07, 03:19:00,VALID,0,VALID,100,VALID,0.0339617,VALID,18.8512,VALID,111,VALID,1.00641,
1999-12-07, 03:20:01,VALID,0,VALID,100,VALID,0.0339617,VALID,18.8708,VALID,89,VALID,0.703926,
1999-12-07, 03:21:00,VALID,0,VALID,100,VALID,0.0509425,VALID,18.8413,VALID,63,VALID,0.902148,
1999-12-07, 03:22:00,VALID,0,VALID,100,VALID,0.0169808,VALID,18.8417,VALID,111,VALID,0.6875,
1999-12-07, 03:23:00,VALID,0,VALID,100,VALID,0.0169808,VALID,18.838,VALID,119,VALID,0.873633,
1999-12-07, 03:24:00,VALID,0,VALID,100,VALID,0.0339617,VALID,18.8581,VALID,98,VALID,0.788035,
1999-12-07, 03:25:00,VALID,0,VALID,100,VALID,0.0339617,VALID,18.8614,VALID,77,VALID,0.548142,
1999-12-07, 03:26:00,VALID,0.2,VALID,100,VALID,0,VALID,18.8286,VALID,84,VALID,0.986178,
1999-12-07, 03:27:00,VALID,0,VALID,100,VALID,0,VALID,18.826,VALID,102,VALID,0.978468,
1999-12-07, 03:28:00,VALID,0,VALID,100,VALID,0.0169808,VALID,18.8353,VALID,137,VALID,0.211523,
1999-12-07, 03:29:01,VALID,0,VALID,100,VALID,0.0169808,VALID,18.8193,VALID,262,VALID,1.16591,
1999-12-07, 03:30:01,VALID,0,VALID,100,VALID,0.0169808,VALID,18.8191,VALID,298,VALID,0.981326,
1999-12-07, 03:31:00,VALID,0,VALID,100,VALID,0.0169808,VALID,18.8131,VALID,289,VALID,0.763302,
1999-12-07, 03:32:00,VALID,0.2,VALID,100,VALID,0.0339617,VALID,18.7997,VALID,304,VALID,0.851985,
1999-12-07, 03:33:00,VALID,0,VALID,100,VALID,0,VALID,18.7898,VALID,296,VALID,0.793069,
1999-12-07, 03:34:00,VALID,0.2,VALID,100,VALID,-0.0849042,VALID,18.7877,VALID,319,VALID,0.387247,
1999-12-07, 03:35:00,VALID,0,VALID,100,VALID,-0.101885,VALID,18.8085,VALID,287,VALID,0.53639,
1999-12-07, 03:36:00,VALID,0,VALID,100,VALID,-0.0849042,VALID,18.7949,VALID,297,VALID,0.799137,
1999-12-07, 03:37:00,VALID,0.2,VALID,100,VALID,-0.101885,VALID,18.7884,VALID,325,VALID,1.04167,
1999-12-07, 03:38:00,VALID,0,VALID,100,VALID,-0.0849042,VALID,18.7753,VALID,335,VALID,0.734586,
1999-12-07, 03:39:00,VALID,0.2,VALID,100,VALID,-0.0849042,VALID,18.7884,VALID,318,VALID,1.38437,
1999-12-07, 03:40:01,VALID,0,VALID,100,VALID,-0.101885,VALID,18.7817,VALID,298,VALID,1.34776,
1999-12-07, 03:41:01,VALID,0,VALID,100,VALID,-0.101885,VALID,18.7716,VALID,314,VALID,1.30684,
1999-12-07, 03:42:00,VALID,0,VALID,100,VALID,-0.0849042,VALID,18.782,VALID,328,VALID,0.635074,
1999-12-07, 03:43:00,VALID,0,VALID,100,VALID,-0.101885,VALID,18.7981,VALID,63,VALID,1.00039,
1999-12-07, 03:44:00,VALID,0,VALID,100,VALID,-0.0849042,VALID,18.7847,VALID,58,VALID,1.27956,
1999-12-07, 03:45:00,VALID,0,VALID,100,VALID,-0.101885,VALID,18.7949,VALID,95,VALID,1.03568,
1999-12-07, 03:46:00,VALID,0,VALID,100,VALID,-0.101885,VALID,18.8076,VALID,117,VALID,0.655449,
1999-12-07, 03:47:00,VALID,0,VALID,100,VALID,-0.0679233,VALID,18.8238,VALID,210,VALID,0.373766,
1999-12-07, 03:48:00,VALID,0,VALID,100,VALID,-0.0509425,VALID,18.8205,VALID,270,VALID,0.862965,
1999-12-07, 03:49:00,VALID,0,VALID,100,VALID,-0.0679233,VALID,18.8111,VALID,246,VALID,0.426192,
1999-12-07, 03:50:00,VALID,0,VALID,100,VALID,-0.0849042,VALID,18.8071,VALID,212,VALID,0.202097,
1999-12-07, 03:51:00,VALID,0,VALID,100,VALID,-0.101885,VALID,18.8143,VALID,248,VALID,0.00300481,
1999-12-07, 03:52:00,VALID,0,VALID,100,VALID,-0.0679233,VALID,18.8203,VALID,269,VALID,0.00320513,
1999-12-07, 03:53:00,VALID,0,VALID,100,VALID,-0.0679233,VALID,18.8141,VALID,288,VALID,0.806055,
1999-12-07, 03:54:00,VALID,0,VALID,100,VALID,-0.101885,VALID,18.8074,VALID,288,VALID,0.18125,
1999-12-07, 03:55:00,VALID,0,VALID,100,VALID,-0.0509425,VALID,18.8108,VALID,288,VALID,0.0015625,
1999-12-07, 03:56:00,VALID,0,VALID,100,VALID,-0.0849042,VALID,18.7972,VALID,288,VALID,0,
1999-12-07, 03:57:00,VALID,0,VALID,100,VALID,-0.101885,VALID,18.8009,VALID,324,VALID,0.228674,
1999-12-07, 03:58:00,VALID,0,VALID,100,VALID,-0.101885,VALID,18.8041,VALID,87,VALID,0.661458,
1999-12-07, 03:59:00,VALID,0,VALID,100,VALID,-0.0509425,VALID,18.8037,VALID,98,VALID,0.749238,
1999-12-07, 04:00:00,VALID,0,VALID,100,VALID,-0.0679233,VALID,18.8106,VALID,88,VALID,0.859766,
1999-12-07, 04:01:00,VALID,0,VALID,100,VALID,-0.101885,VALID,18.8011,VALID,87,VALID,0.799342,
1999-12-07, 04:02:01,VALID,0,VALID,100,VALID,-0.0849042,VALID,18.8074,VALID,92,VALID,1.05354,
1999-12-07, 04:03:00,VALID,0,VALID,100,VALID,-0.101885,VALID,18.7884,VALID,62,VALID,0.804688,
1999-12-07, 04:04:00,VALID,0,VALID,100,VALID,-0.0169808,VALID,18.7743,VALID,74,VALID,0.132179,
1999-12-07, 04:05:00,VALID,0,VALID,100,VALID,0,VALID,18.7672,VALID,83,VALID,0.00240385,
1999-12-07, 04:06:00,VALID,0,VALID,100,VALID,0.0169808,VALID,18.7903,VALID,97,VALID,0.945946,
1999-12-07, 04:07:00,VALID,0,VALID,100,VALID,0,VALID,18.8002,VALID,87,VALID,1.06086,
1999-12-07, 04:08:00,VALID,0,VALID,100,VALID,0,VALID,18.7838,VALID,74,VALID,0.668174,
1999-12-07, 04:09:00,VALID,0,VALID,100,VALID,-0.0169808,VALID,18.7806,VALID,57,VALID,0.259014,
1999-12-07, 04:10:00,VALID,0,VALID,100,VALID,-0.0169808,VALID,18.7778,VALID,70,VALID,0.758657,
1999-12-07, 04:11:00,VALID,0.2,VALID,100,VALID,0,VALID,18.7709,VALID,55,VALID,0.304883,
1999-12-07, 04:12:00,VALID,0,VALID,100,VALID,0,VALID,18.7711,VALID,55,VALID,0.379407,
1999-12-07, 04:13:01,VALID,0,VALID,100,VALID,0,VALID,18.7642,VALID,116,VALID,0.458008,
1999-12-07, 04:14:00,VALID,0,VALID,100,VALID,0,VALID,18.7743,VALID,103,VALID,0.0361842,
1999-12-07, 04:15:00,VALID,0,VALID,100,VALID,0,VALID,18.7773,VALID,90,VALID,0.870313,